Location: Genova
(44.4170°N, 8.9500°E)
Time: 12:25:42
(UTC+02:00)

ISS - Visible Passes

Search period start: 11 May 2021 00:00
Search period end: 21 May 2021 00:00
Orbit: 418 x 421 km, 51.6° (Epoch: 11 May)

Date Brightness Start Highest point End Pass type
(mag) Time Alt. Az. Time Alt. Az. Time Alt. Az.
11 May -1.4 02:04:21 24° NNE 02:04:21 24° NNE 02:06:18 10° NE visible
11 May -1.4 03:37:57 10° NW 03:40:46 24° N 03:43:36 10° ENE visible
11 May -2.9 05:14:45 10° NW 05:18:05 54° NNE 05:21:25 10° ESE visible
12 May -0.8 01:18:16 14° NE 01:18:16 14° NE 01:18:53 10° NE visible
12 May -1.3 02:51:12 15° NW 02:53:09 23° N 02:55:55 10° NE visible
12 May -2.3 04:27:21 10° NW 04:30:34 39° NNE 04:33:47 10° E visible
13 May -1.4 02:05:02 23° NNW 02:05:32 23° N 02:08:20 10° NE visible
13 May -1.8 03:39:58 10° NW 03:43:01 31° NNE 03:46:05 10° E visible
13 May -3.8 05:16:41 10° WNW 05:20:02 65° SW 05:23:23 10° SE visible
14 May -1.4 01:18:38 24° NNE 01:18:38 24° NNE 01:20:49 10° NE visible
14 May -1.5 02:52:30 10° NW 02:55:26 26° N 02:58:21 10° ENE visible
14 May -3.7 04:29:13 10° WNW 04:32:37 81° NNE 04:36:00 10° ESE visible
14 May -1.7 21:16:21 10° SE 21:17:01 10° SE 21:17:40 10° ESE visible
14 May -3.9 22:49:55 10° SW 22:53:16 73° SSE 22:55:37 18° ENE visible
15 May -1.8 00:27:18 10° WNW 00:30:19 29° NNW 00:33:21 10° NE visible
15 May -1.3 02:05:01 10° NW 02:07:50 24° N 02:10:39 10° ENE visible
15 May -3.0 03:41:49 10° NW 03:45:09 54° NNE 03:48:28 10° ESE visible
15 May -2.6 05:18:58 10° W 05:21:46 24° SW 05:24:34 10° SSE visible
15 May -3.5 22:02:40 10° SW 22:05:53 45° SE 22:09:07 10° ENE visible
15 May -2.2 23:39:36 10° W 23:42:46 36° NNW 23:45:56 10° NE visible
16 May -1.3 01:17:26 10° NW 01:20:12 23° N 01:22:59 10° NE visible
16 May -2.4 02:54:25 10° NW 02:57:37 39° NNE 03:00:50 10° E visible
16 May -3.3 04:31:16 10° WNW 04:34:27 39° SW 04:37:37 10° SSE visible
16 May -2.8 22:51:57 10° W 22:55:14 49° NNW 22:58:32 10° NE visible
17 May -1.3 00:29:47 10° WNW 00:32:35 23° N 00:35:23 10° NE visible
17 May -1.9 02:07:00 10° NW 02:10:04 31° NNE 02:13:08 10° E visible
17 May -3.9 03:43:43 10° WNW 03:47:05 64° SW 03:50:25 10° SE visible
17 May -3.5 22:04:23 10° WSW 22:07:45 72° NNW 22:11:06 10° ENE visible
17 May -1.4 23:42:05 10° WNW 23:44:58 25° N 23:47:51 10° NE visible
18 May -1.6 01:19:33 10° NW 01:22:29 26° N 01:22:56 25° NNE visible
18 May -3.8 21:16:57 10° SW 21:20:18 74° SSE 21:23:40 10° ENE visible
18 May -1.7 22:54:21 10° WNW 22:57:22 29° NNW 23:00:23 10° NE visible
19 May -1.4 00:32:02 10° NW 00:34:52 24° N 00:36:31 17° NE visible
19 May -1.1 02:08:51 10° NW 02:09:26 14° NW 02:09:26 14° NW visible
19 May -2.1 22:06:39 10° W 22:09:47 36° NNW 22:12:57 10° NE visible
19 May -1.3 23:44:27 10° NW 23:47:14 23° N 23:50:00 10° NE visible
20 May -1.7 01:21:26 10° NW 01:23:17 26° NNW 01:23:17 26° NNW visible
20 May -2.7 21:18:58 10° W 21:22:15 49° NNW 21:25:32 10° NE visible
20 May -1.3 22:56:48 10° WNW 22:59:36 23° N 23:02:23 10° NE visible
